QPF
0.12 0.11 0.11 0.09 0.06 0.09 0.17 0.17 0.13 0.15 0.17 0.17 0.14 0.14 0.11 0.09 0.05 0.04 0.14 0.25 0.16 0.08 0.04 0.03 0.02 0.03 0.02 0.03 0.03 0.04 0.07 0.09 0.08 0.07 0.07 0.05 0.03 0.02 0.02 0.02 0.02 0.01 0.01
0.20 0.23 0.22 0.23 0.16 0.12 0.14 0.19 0.21 0.27 0.24 0.21 0.14 0.15 0.14 0.17 0.18 0.15 0.17 0.31 0.28 0.13 0.06 0.03 0.03 0.04 0.04 0.04 0.03 0.04 0.06 0.07 0.07 0.05 0.06 0.07 0.06 0.03 0.03 0.03 0.02 0.02 0.01
0.24 0.29 0.30 0.31 0.26 0.21 0.21 0.19 0.22 0.30 0.28 0.24 0.21 0.21 0.23 0.23 0.25 0.23 0.22 0.30 0.29 0.20 0.12 0.06 0.04 0.04 0.04 0.05 0.06 0.05 0.06 0.06 0.07 0.06 0.06 0.06 0.06 0.05 0.03 0.03 0.03 0.02 0.02
0.22 0.24 0.24 0.25 0.28 0.29 0.31 0.29 0.25 0.27 0.29 0.31 0.28 0.24 0.27 0.25 0.21 0.18 0.15 0.13 0.13 0.12 0.16 0.10 0.05 0.03 0.03 0.04 0.05 0.06 0.07 0.07 0.07 0.06 0.06 0.05 0.05 0.04 0.04 0.03 0.03 0.02 0.01
0.19 0.24 0.25 0.25 0.29 0.32 0.32 0.31 0.34 0.34 0.32 0.33 0.30 0.23 0.18 0.18 0.15 0.11 0.09 0.07 0.05 0.06 0.07 0.07 0.04 0.04 0.03 0.02 0.04 0.05 0.07 0.07 0.06 0.04 0.04 0.04 0.05 0.04 0.03 0.03 0.02 0.02 0.02
0.15 0.24 0.28 0.31 0.35 0.37 0.35 0.32 0.35 0.34 0.30 0.31 0.26 0.20 0.16 0.10 0.07 0.06 0.04 0.03 0.03 0.04 0.07 0.06 0.07 0.03 0.01 0.02 0.03 0.04 0.05 0.06 0.05 0.05 0.06 0.06 0.06 0.05 0.03 0.03 0.02 0.01 0.01
0.09 0.15 0.20 0.24 0.27 0.30 0.32 0.33 0.33 0.33 0.31 0.29 0.30 0.23 0.18 0.14 0.08 0.04 0.02 0.02 0.02 0.02 0.03 0.04 0.04 0.02 0.02 0.01 0.01 0.02 0.03 0.06 0.05 0.05 0.06 0.05 0.06 0.04 0.03 0.03 0.02 0.01 0.01
0.05 0.10 0.15 0.18 0.22 0.25 0.27 0.32 0.35 0.35 0.31 0.29 0.30 0.27 0.23 0.19 0.13 0.05 0.03 0.02 0.02 0.02 0.01 0.01 0.00 0.01 0.02 0.03 0.01 0.01 0.02 0.04 0.05 0.05 0.05 0.05 0.05 0.04 0.03 0.03 0.04 0.03 0.02
0.02 0.04 0.07 0.12 0.18 0.22 0.25 0.28 0.31 0.31 0.29 0.27 0.26 0.22 0.18 0.14 0.10 0.07 0.05 0.02 0.01 0.01 0.00 0.00 0.00 0.00 0.01 0.02 0.03 0.02 0.01 0.02 0.03 0.04 0.05 0.04 0.03 0.03 0.03 0.03 0.05 0.06 0.05
0.00 0.01 0.03 0.06 0.11 0.16 0.19 0.18 0.18 0.23 0.26 0.27 0.27 0.20 0.13 0.12 0.12 0.09 0.06 0.02 0.00 0.00 0.00 0.00 0.00 0.00 0.01 0.02 0.03 0.01 0.01 0.01 0.01 0.04 0.05 0.05 0.04 0.03 0.03 0.04 0.06 0.07 0.05
0.01 0.00 0.01 0.02 0.05 0.10 0.15 0.19 0.21 0.21 0.21 0.22 0.24 0.22 0.16 0.11 0.08 0.08 0.09 0.05 0.02 0.00 0.00 0.00 0.00 0.01 0.01 0.03 0.05 0.02 0.00 0.00 0.01 0.01 0.04 0.05 0.05 0.05 0.04 0.05 0.08 0.09 0.07
0.00 0.00 0.01 0.01 0.02 0.04 0.07 0.13 0.18 0.21 0.22 0.22 0.19 0.22 0.23 0.16 0.08 0.05 0.04 0.04 0.04 0.01 0.00 0.00 0.01 0.01 0.02 0.04 0.03 0.01 0.01 0.00 0.01 0.01 0.01 0.02 0.04 0.04 0.04 0.05 0.08 0.10 0.10
0.00 0.00 0.00 0.01 0.01 0.02 0.03 0.05 0.11 0.17 0.21 0.22 0.21 0.21 0.23 0.22 0.13 0.08 0.06 0.04 0.03 0.02 0.01 0.01 0.01 0.02 0.02 0.03 0.01 0.00 0.00 0.00 0.00 0.01 0.01 0.02 0.02 0.03 0.04 0.05 0.07 0.10 0.13
0.00 0.00 0.00 0.00 0.01 0.01 0.01 0.02 0.04 0.09 0.15 0.19 0.21 0.23 0.24 0.21 0.21 0.17 0.13 0.11 0.10 0.06 0.04 0.02 0.02 0.02 0.03 0.02 0.00 0.00 0.00 0.00 0.00 0.00 0.01 0.01 0.02 0.03 0.04 0.05 0.06 0.08 0.09
0.00 0.00 0.00 0.00 0.00 0.01 0.01 0.02 0.03 0.05 0.08 0.13 0.17 0.21 0.24 0.25 0.25 0.21 0.19 0.15 0.15 0.17 0.15 0.11 0.08 0.05 0.03 0.02 0.00 0.01 0.01 0.00 0.00 0.00 0.00 0.00 0.01 0.02 0.02 0.03 0.06 0.08 0.08
0.00 0.00 0.00 0.01 0.01 0.01 0.01 0.02 0.02 0.03 0.06 0.08 0.11 0.16 0.20 0.24 0.30 0.29 0.26 0.21 0.18 0.17 0.18 0.15 0.13 0.10 0.05 0.01 0.00 0.01 0.00 0.00 0.00 0.00 0.00 0.00 0.01 0.01 0.01 0.02 0.04 0.06 0.08
0.01 0.01 0.01 0.01 0.01 0.01 0.01 0.02 0.02 0.02 0.03 0.05 0.07 0.11 0.15 0.21 0.27 0.30 0.32 0.29 0.25 0.21 0.21 0.20 0.21 0.18 0.09 0.04 0.02 0.02 0.01 0.00 0.00 0.00 0.00 0.00 0.00 0.00 0.01 0.02 0.03 0.05 0.06
0.01 0.01 0.01 0.01 0.01 0.01 0.01 0.02 0.02 0.02 0.02 0.02 0.04 0.06 0.08 0.14 0.21 0.27 0.32 0.32 0.30 0.29 0.27 0.28 0.28 0.24 0.17 0.10 0.06 0.03 0.01 0.00 0.00 0.00 0.00 0.00 0.00 0.00 0.00 0.01 0.02 0.03 0.04
0.02 0.02 0.02 0.03 0.02 0.02 0.02 0.02 0.02 0.02 0.02 0.02 0.02 0.04 0.06 0.08 0.12 0.19 0.27 0.31 0.31 0.30 0.31 0.31 0.32 0.31 0.23 0.15 0.09 0.04 0.02 0.01 0.00 0.00 0.00 0.00 0.00 0.00 0.00 0.00 0.01 0.01 0.01
0.03 0.03 0.03 0.04 0.04 0.04 0.03 0.03 0.03 0.04 0.04 0.03 0.02 0.02 0.04 0.07 0.10 0.13 0.17 0.24 0.30 0.33 0.37 0.35 0.34 0.32 0.26 0.21 0.12 0.06 0.03 0.01 0.00 0.00 0.00 0.00 0.00 0.00 0.00 0.00 0.00 0.01 0.01
0.02 0.03 0.04 0.05 0.05 0.05 0.03 0.03 0.05 0.05 0.06 0.06 0.04 0.03 0.02 0.03 0.06 0.10 0.15 0.20 0.26 0.29 0.34 0.37 0.36 0.34 0.26 0.20 0.13 0.08 0.04 0.02 0.00 0.00 0.00 0.00 0.00 0.00 0.00 0.00 0.00 0.00 0.01
0.04 0.05 0.05 0.06 0.06 0.04 0.02 0.02 0.04 0.05 0.07 0.08 0.07 0.06 0.03 0.01 0.02 0.04 0.08 0.14 0.21 0.27 0.30 0.34 0.36 0.34 0.27 0.21 0.15 0.09 0.05 0.02 0.01 0.01 0.00 0.00 0.00 0.00 0.00 0.00 0.00 0.00 0.00
0.06 0.07 0.07 0.07 0.08 0.08 0.04 0.03 0.02 0.03 0.05 0.08 0.09 0.10 0.05 0.01 0.01 0.01 0.03 0.06 0.11 0.18 0.25 0.29 0.32 0.35 0.33 0.26 0.19 0.10 0.07 0.04 0.01 0.00 0.01 0.00 0.00 0.00 0.00 0.00 0.00 0.00 0.00
0.09 0.09 0.09 0.09 0.11 0.09 0.06 0.04 0.03 0.02 0.04 0.06 0.09 0.11 0.09 0.06 0.03 0.02 0.02 0.04 0.05 0.07 0.12 0.19 0.25 0.34 0.41 0.37 0.27 0.18 0.12 0.08 0.03 0.01 0.01 0.00 0.00 0.00 0.00 0.00 0.00 0.00 0.00
0.09 0.10 0.11 0.12 0.13 0.12 0.10 0.05 0.03 0.04 0.06 0.07 0.08 0.09 0.09 0.08 0.05 0.02 0.02 0.04 0.06 0.06 0.07 0.11 0.19 0.28 0.38 0.42 0.37 0.27 0.19 0.11 0.03 0.01 0.01 0.00 0.00 0.00 0.00 0.00 0.00 0.00 0.00
0.10 0.11 0.11 0.14 0.15 0.16 0.15 0.05 0.03 0.05 0.08 0.10 0.12 0.12 0.09 0.10 0.07 0.02 0.02 0.04 0.05 0.07 0.07 0.07 0.10 0.18 0.26 0.34 0.34 0.27 0.21 0.13 0.04 0.01 0.00 0.00 0.00 0.00 0.00 0.00 0.00 0.00 0.00
MSLP
1012.20 1012.22 1012.13 1011.98 1011.81 1011.69 1011.66 1011.74 1011.93 1012.20 1012.49 1012.76 1012.97 1013.10 1013.15 1013.15 1013.14 1013.16 1013.24 1013.41 1013.67 1014.01 1014.41 1014.83 1015.26 1015.67 1016.05 1016.40 1016.72 1017.03 1017.33 1017.65 1017.98 1018.33 1018.70 1019.08 1019.46 1019.84 1020.21 1020.56 1020.90 1021.23 1021.55
1012.06 1012.05 1011.94 1011.76 1011.56 1011.40 1011.32 1011.36 1011.51 1011.75 1012.04 1012.34 1012.59 1012.77 1012.88 1012.93 1012.94 1012.95 1013.01 1013.13 1013.33 1013.62 1013.97 1014.37 1014.79 1015.19 1015.57 1015.92 1016.24 1016.54 1016.83 1017.13 1017.44 1017.79 1018.16 1018.54 1018.94 1019.34 1019.73 1020.10 1020.46 1020.80 1021.13
1011.91 1011.89 1011.77 1011.59 1011.39 1011.23 1011.13 1011.14 1011.27 1011.48 1011.76 1012.05 1012.32 1012.53 1012.66 1012.72 1012.72 1012.71 1012.72 1012.78 1012.92 1013.14 1013.44 1013.81 1014.21 1014.62 1015.01 1015.37 1015.69 1015.99 1016.27 1016.55 1016.85 1017.18 1017.55 1017.94 1018.35 1018.77 1019.18 1019.57 1019.95 1020.31 1020.66
1011.72 1011.69 1011.60 1011.45 1011.29 1011.15 1011.06 1011.07 1011.17 1011.35 1011.60 1011.87 1012.12 1012.31 1012.43 1012.47 1012.44 1012.38 1012.32 1012.30 1012.37 1012.52 1012.77 1013.11 1013.50 1013.91 1014.32 1014.71 1015.05 1015.36 1015.64 1015.91 1016.20 1016.52 1016.88 1017.27 1017.69 1018.13 1018.57 1018.99 1019.39 1019.78 1020.16
1011.46 1011.44 1011.39 1011.30 1011.20 1011.11 1011.06 1011.07 1011.16 1011.31 1011.51 1011.73 1011.93 1012.07 1012.15 1012.13 1012.05 1011.92 1011.79 1011.70 1011.68 1011.77 1011.97 1012.27 1012.65 1013.08 1013.52 1013.93 1014.31 1014.64 1014.94 1015.22 1015.51 1015.82 1016.17 1016.57 1017.00 1017.46 1017.92 1018.37 1018.81 1019.23 1019.63
1011.13 1011.13 1011.12 1011.11 1011.09 1011.07 1011.07 1011.10 1011.18 1011.29 1011.44 1011.59 1011.72 1011.80 1011.81 1011.73 1011.58 1011.38 1011.17 1011.00 1010.91 1010.93 1011.07 1011.35 1011.72 1012.16 1012.63 1013.08 1013.50 1013.87 1014.20 1014.49 1014.79 1015.11 1015.46 1015.86 1016.31 1016.78 1017.27 1017.75 1018.22 1018.67 1019.10
1010.77 1010.77 1010.81 1010.87 1010.93 1010.99 1011.05 1011.11 1011.18 1011.26 1011.36 1011.45 1011.51 1011.52 1011.46 1011.32 1011.10 1010.83 1010.56 1010.31 1010.14 1010.10 1010.19 1010.42 1010.78 1011.23 1011.72 1012.21 1012.67 1013.08 1013.44 1013.77 1014.09 1014.41 1014.78 1015.18 1015.64 1016.13 1016.64 1017.15 1017.65 1018.12 1018.57
1010.40 1010.41 1010.48 1010.60 1010.74 1010.86 1010.98 1011.07 1011.14 1011.21 1011.26 1011.30 1011.31 1011.26 1011.16 1010.97 1010.71 1010.39 1010.05 1009.74 1009.51 1009.39 1009.42 1009.60 1009.93 1010.36 1010.86 1011.37 1011.87 1012.32 1012.72 1013.09 1013.43 1013.77 1014.15 1014.56 1015.02 1015.52 1016.04 1016.57 1017.09 1017.58 1018.05
1010.09 1010.08 1010.17 1010.32 1010.51 1010.68 1010.84 1010.96 1011.05 1011.11 1011.15 1011.16 1011.15 1011.09 1010.97 1010.77 1010.49 1010.15 1009.77 1009.41 1009.11 1008.92 1008.88 1008.99 1009.26 1009.65 1010.13 1010.64 1011.16 1011.64 1012.08 1012.48 1012.84 1013.21 1013.59 1014.00 1014.46 1014.96 1015.48 1016.02 1016.55 1017.05 1017.53
1009.86 1009.82 1009.90 1010.06 1010.26 1010.46 1010.64 1010.79 1010.90 1010.97 1011.03 1011.06 1011.06 1011.02 1010.93 1010.75 1010.49 1010.15 1009.77 1009.37 1009.01 1008.75 1008.61 1008.64 1008.82 1009.14 1009.58 1010.07 1010.58 1011.08 1011.54 1011.96 1012.35 1012.73 1013.11 1013.52 1013.96 1014.44 1014.95 1015.48 1016.01 1016.51 1016.99
1009.72 1009.64 1009.68 1009.81 1010.00 1010.21 1010.40 1010.56 1010.69 1010.79 1010.88 1010.96 1011.02 1011.04 1011.01 1010.90 1010.69 1010.39 1010.01 1009.59 1009.19 1008.85 1008.62 1008.54 1008.63 1008.87 1009.23 1009.68 1010.17 1010.66 1011.13 1011.56 1011.96 1012.34 1012.72 1013.10 1013.52 1013.97 1014.45 1014.95 1015.46 1015.96 1016.43
1009.64 1009.50 1009.49 1009.58 1009.73 1009.91 1010.09 1010.26 1010.41 1010.55 1010.70 1010.84 1010.98 1011.09 1011.15 1011.13 1011.00 1010.75 1010.40 1009.99 1009.55 1009.15 1008.84 1008.66 1008.65 1008.79 1009.07 1009.46 1009.92 1010.39 1010.86 1011.29 1011.69 1012.06 1012.41 1012.76 1013.13 1013.54 1013.97 1014.43 1014.91 1015.39 1015.86
1009.57 1009.39 1009.32 1009.35 1009.45 1009.58 1009.73 1009.89 1010.06 1010.24 1010.44 1010.65 1010.88 1011.09 1011.25 1011.33 1011.29 1011.11 1010.82 1010.42 1009.98 1009.54 1009.18 1008.92 1008.82 1008.88 1009.09 1009.42 1009.83 1010.28 1010.74 1011.16 1011.55 1011.90 1012.21 1012.52 1012.84 1013.17 1013.54 1013.95 1014.38 1014.84 1015.31
1009.48 1009.25 1009.13 1009.10 1009.13 1009.21 1009.33 1009.47 1009.63 1009.83 1010.07 1010.35 1010.65 1010.95 1011.20 1011.38 1011.43 1011.34 1011.11 1010.77 1010.35 1009.91 1009.51 1009.22 1009.06 1009.06 1009.22 1009.51 1009.90 1010.33 1010.77 1011.19 1011.55 1011.88 1012.15 1012.41 1012.65 1012.92 1013.21 1013.55 1013.94 1014.37 1014.81
1009.32 1009.07 1008.90 1008.81 1008.79 1008.82 1008.89 1008.99 1009.14 1009.34 1009.60 1009.91 1010.25 1010.61 1010.94 1011.19 1011.33 1011.33 1011.18 1010.90 1010.54 1010.14 1009.77 1009.48 1009.31 1009.30 1009.45 1009.72 1010.09 1010.52 1010.95 1011.36 1011.71 1012.01 1012.24 1012.44 1012.62 1012.81 1013.03 1013.31 1013.63 1014.02 1014.44
1009.08 1008.82 1008.63 1008.50 1008.43 1008.41 1008.43 1008.50 1008.61 1008.78 1009.03 1009.33 1009.69 1010.07 1010.44 1010.74 1010.95 1011.03 1010.97 1010.78 1010.50 1010.18 1009.88 1009.65 1009.53 1009.55 1009.71 1010.00 1010.38 1010.82 1011.25 1011.66 1012.01 1012.28 1012.49 1012.64 1012.77 1012.89 1013.05 1013.25 1013.52 1013.86 1014.25
1008.76 1008.51 1008.32 1008.17 1008.07 1008.01 1007.99 1008.01 1008.07 1008.20 1008.40 1008.67 1009.00 1009.36 1009.73 1010.06 1010.31 1010.45 1010.48 1010.40 1010.23 1010.03 1009.83 1009.70 1009.66 1009.75 1009.97 1010.30 1010.72 1011.17 1011.63 1012.05 1012.40 1012.67 1012.86 1012.99 1013.08 1013.16 1013.26 1013.42 1013.63 1013.92 1014.27
1008.38 1008.15 1007.97 1007.82 1007.71 1007.63 1007.57 1007.54 1007.56 1007.62 1007.76 1007.96 1008.24 1008.56 1008.90 1009.22 1009.50 1009.70 1009.81 1009.83 1009.79 1009.72 1009.66 1009.64 1009.72 1009.90 1010.19 1010.57 1011.03 1011.51 1011.99 1012.43 1012.80 1013.08 1013.28 1013.42 1013.50 1013.57 1013.65 1013.78 1013.96 1014.20 1014.51
1007.94 1007.74 1007.58 1007.45 1007.34 1007.25 1007.16 1007.09 1007.05 1007.06 1007.12 1007.26 1007.46 1007.72 1008.02 1008.33 1008.62 1008.86 1009.05 1009.17 1009.25 1009.31 1009.38 1009.49 1009.68 1009.95 1010.31 1010.75 1011.24 1011.75 1012.26 1012.72 1013.11 1013.43 1013.67 1013.84 1013.96 1014.05 1014.15 1014.28 1014.44 1014.66 1014.93
1007.46 1007.28 1007.14 1007.03 1006.93 1006.83 1006.73 1006.63 1006.55 1006.50 1006.50 1006.57 1006.71 1006.92 1007.18 1007.47 1007.77 1008.05 1008.30 1008.51 1008.70 1008.87 1009.06 1009.28 1009.55 1009.89 1010.30 1010.77 1011.28 1011.81 1012.33 1012.82 1013.25 1013.62 1013.92 1014.16 1014.35 1014.51 1014.67 1014.83 1015.02 1015.23 1015.47
1006.92 1006.76 1006.63 1006.52 1006.43 1006.32 1006.21 1006.10 1005.99 1005.91 1005.87 1005.90 1006.00 1006.17 1006.41 1006.69 1007.00 1007.32 1007.63 1007.91 1008.18 1008.44 1008.71 1009.00 1009.33 1009.70 1010.13 1010.61 1011.12 1011.65 1012.17 1012.68 1013.15 1013.57 1013.95 1014.29 1014.59 1014.86 1015.11 1015.35 1015.58 1015.82 1016.07
1006.32 1006.15 1006.02 1005.91 1005.80 1005.69 1005.57 1005.45 1005.33 1005.24 1005.19 1005.21 1005.30 1005.48 1005.72 1006.02 1006.35 1006.70 1007.06 1007.40 1007.72 1008.03 1008.35 1008.67 1009.01 1009.39 1009.81 1010.26 1010.74 1011.24 1011.75 1012.27 1012.78 1013.27 1013.74 1014.19 1014.62 1015.02 1015.39 1015.74 1016.06 1016.36 1016.63
1005.65 1005.45 1005.30 1005.16 1005.04 1004.92 1004.79 1004.66 1004.54 1004.46 1004.44 1004.48 1004.60 1004.81 1005.09 1005.42 1005.80 1006.19 1006.58 1006.95 1007.31 1007.65 1007.97 1008.29 1008.62 1008.97 1009.34 1009.74 1010.17 1010.63 1011.12 1011.64 1012.18 1012.73 1013.30 1013.86 1014.42 1014.97 1015.49 1015.96 1016.39 1016.77 1017.08
1004.92 1004.69 1004.49 1004.32 1004.16 1004.01 1003.87 1003.74 1003.64 1003.59 1003.61 1003.71 1003.89 1004.15 1004.49 1004.88 1005.30 1005.74 1006.16 1006.56 1006.92 1007.26 1007.57 1007.87 1008.16 1008.46 1008.77 1009.12 1009.49 1009.91 1010.37 1010.88 1011.43 1012.04 1012.68 1013.36 1014.04 1014.72 1015.38 1015.98 1016.53 1016.99 1017.38
1004.17 1003.90 1003.65 1003.43 1003.24 1003.05 1002.89 1002.76 1002.69 1002.68 1002.75 1002.92 1003.17 1003.51 1003.92 1004.37 1004.84 1005.31 1005.75 1006.16 1006.53 1006.85 1007.14 1007.41 1007.66 1007.91 1008.17 1008.46 1008.79 1009.16 1009.59 1010.09 1010.66 1011.30 1012.00 1012.75 1013.53 1014.32 1015.10 1015.82 1016.47 1017.03 1017.48
1003.45 1003.13 1002.84 1002.58 1002.34 1002.13 1001.95 1001.83 1001.77 1001.81 1001.94 1002.17 1002.50 1002.91 1003.38 1003.88 1004.39 1004.88 1005.34 1005.74 1006.10 1006.40 1006.67 1006.91 1007.13 1007.35 1007.58 1007.84 1008.14 1008.49 1008.90 1009.39 1009.95 1010.61 1011.34 1012.14 1012.98 1013.84 1014.69 1015.50 1016.23 1016.87 1017.40
Thickness
5759 5758 5756 5754 5752 5750 5746 5746 5746 5747 5746 5746 5747 5747 5748 5748 5750 5750 5750 5748 5745 5747 5747 5746 5745 5743 5742 5740 5738 5737 5735 5734 5733 5731 5730 5729 5728 5727 5726 5725 5724 5723 5722
5753 5751 5748 5746 5745 5744 5742 5741 5741 5741 5740 5741 5742 5743 5744 5745 5746 5745 5744 5744 5744 5744 5745 5745 5744 5743 5742 5741 5739 5737 5736 5734 5733 5731 5730 5729 5728 5727 5726 5725 5724 5723 5723
5746 5744 5741 5739 5738 5737 5736 5736 5737 5735 5736 5736 5735 5737 5739 5741 5741 5741 5740 5741 5742 5743 5743 5744 5744 5744 5743 5742 5740 5738 5737 5735 5733 5732 5730 5729 5728 5727 5726 5725 5724 5724 5723
5738 5737 5735 5734 5733 5732 5731 5729 5729 5728 5728 5729 5729 5730 5734 5736 5738 5739 5740 5741 5742 5743 5743 5745 5745 5744 5744 5742 5741 5740 5738 5736 5734 5732 5731 5730 5728 5727 5726 5725 5725 5724 5723
5729 5728 5727 5727 5726 5726 5725 5724 5723 5722 5721 5722 5723 5725 5728 5731 5734 5737 5739 5741 5743 5744 5745 5746 5746 5746 5745 5744 5742 5741 5740 5738 5736 5734 5732 5730 5729 5728 5726 5725 5725 5724 5723
5721 5720 5720 5720 5720 5719 5719 5718 5717 5717 5718 5718 5718 5720 5724 5728 5731 5735 5738 5741 5742 5745 5747 5748 5746 5745 5745 5745 5744 5743 5742 5740 5738 5736 5734 5732 5730 5728 5727 5725 5724 5723 5723
5714 5713 5712 5712 5713 5712 5713 5713 5713 5711 5712 5713 5710 5712 5718 5725 5729 5733 5737 5740 5743 5746 5747 5749 5747 5747 5747 5746 5745 5744 5743 5742 5740 5738 5736 5733 5731 5729 5727 5726 5724 5723 5722
5707 5707 5705 5704 5705 5705 5706 5707 5707 5704 5706 5709 5705 5703 5705 5713 5723 5733 5736 5738 5741 5745 5747 5749 5750 5749 5749 5748 5745 5745 5744 5743 5741 5739 5737 5735 5733 5730 5728 5726 5724 5722 5721
5700 5698 5696 5696 5696 5696 5697 5699 5699 5698 5698 5703 5704 5700 5698 5702 5714 5725 5731 5736 5738 5740 5745 5749 5750 5750 5749 5748 5748 5746 5745 5744 5742 5740 5738 5736 5733 5731 5729 5726 5724 5722 5720
5691 5690 5688 5687 5687 5688 5688 5690 5692 5692 5692 5693 5696 5699 5701 5704 5704 5708 5720 5730 5734 5736 5740 5744 5747 5748 5748 5748 5748 5748 5746 5744 5742 5740 5738 5736 5734 5732 5729 5726 5724 5722 5720
5681 5681 5680 5679 5678 5678 5678 5680 5682 5683 5684 5686 5687 5690 5694 5698 5703 5702 5703 5714 5723 5730 5735 5738 5742 5744 5745 5745 5746 5745 5744 5743 5742 5740 5738 5736 5734 5731 5729 5726 5724 5722 5720
5672 5673 5672 5670 5669 5668 5668 5669 5671 5674 5676 5679 5681 5683 5684 5687 5693 5697 5699 5704 5710 5720 5729 5733 5736 5738 5740 5741 5741 5741 5741 5741 5740 5739 5737 5735 5733 5731 5729 5726 5724 5722 5720
5659 5660 5662 5660 5659 5659 5659 5660 5661 5663 5667 5670 5673 5676 5678 5682 5687 5692 5694 5698 5705 5714 5721 5727 5731 5734 5735 5735 5734 5735 5735 5736 5736 5736 5735 5734 5732 5730 5728 5726 5723 5721 5719
5648 5650 5650 5650 5649 5649 5650 5651 5652 5654 5657 5660 5663 5667 5671 5674 5678 5684 5687 5689 5692 5702 5711 5717 5725 5728 5729 5729 5728 5729 5729 5730 5732 5732 5732 5731 5730 5729 5727 5725 5722 5720 5718
5641 5641 5640 5639 5639 5639 5639 5640 5641 5643 5646 5649 5653 5657 5662 5666 5671 5676 5680 5684 5684 5686 5694 5706 5713 5720 5721 5721 5721 5722 5722 5724 5726 5727 5728 5727 5727 5726 5725 5722 5720 5718 5716
5630 5630 5629 5629 5629 5629 5629 5629 5630 5633 5634 5637 5641 5645 5650 5656 5661 5667 5671 5677 5682 5683 5686 5698 5705 5711 5713 5714 5713 5715 5715 5717 5719 5721 5722 5722 5722 5722 5721 5719 5717 5714 5713
5620 5619 5618 5617 5617 5617 5617 5617 5618 5621 5623 5625 5629 5633 5638 5644 5650 5656 5662 5667 5672 5677 5678 5688 5697 5701 5703 5704 5704 5706 5708 5709 5711 5713 5715 5716 5716 5716 5715 5714 5712 5710 5708
5610 5608 5606 5605 5604 5604 5604 5604 5605 5609 5611 5614 5617 5621 5626 5633 5639 5645 5651 5657 5662 5668 5671 5674 5682 5689 5692 5696 5697 5699 5701 5702 5702 5704 5706 5707 5708 5709 5709 5708 5706 5704 5703
5598 5596 5593 5591 5590 5590 5590 5591 5592 5594 5598 5602 5606 5610 5615 5620 5626 5633 5639 5646 5653 5660 5664 5666 5671 5678 5681 5686 5687 5690 5692 5693 5694 5694 5696 5697 5699 5700 5701 5700 5699 5698 5696
5587 5583 5581 5578 5577 5576 5576 5576 5577 5580 5584 5589 5594 5599 5604 5609 5615 5620 5628 5636 5643 5649 5655 5659 5662 5667 5671 5676 5679 5680 5681 5684 5686 5688 5687 5688 5690 5691 5692 5692 5691 5690 5689
5576 5572 5569 5566 5564 5562 5563 5564 5564 5566 5570 5575 5580 5586 5593 5598 5605 5611 5618 5625 5632 5638 5646 5651 5655 5659 5663 5667 5671 5673 5674 5676 5678 5680 5680 5681 5682 5683 5683 5682 5682 5682 5682
5566 5561 5557 5554 5552 5551 5553 5551 5550 5553 5557 5562 5567 5574 5580 5587 5593 5599 5607 5614 5621 5629 5635 5642 5648 5653 5659 5664 5667 5669 5668 5669 5669 5674 5675 5675 5677 5677 5676 5674 5673 5674 5673
5556 5551 5547 5544 5542 5540 5538 5537 5537 5539 5544 5550 5556 5561 5568 5578 5583 5589 5594 5601 5609 5618 5626 5634 5640 5648 5655 5660 5662 5663 5664 5666 5668 5670 5671 5669 5670 5668 5666 5665 5665 5666 5665
5547 5542 5539 5536 5533 5531 5529 5527 5527 5529 5534 5541 5547 5552 5556 5565 5574 5579 5585 5591 5599 5608 5617 5625 5635 5643 5649 5654 5658 5660 5661 5660 5662 5664 5668 5663 5662 5659 5656 5655 5656 5657 5657
5541 5536 5533 5530 5527 5525 5522 5520 5518 5521 5527 5533 5539 5544 5549 5555 5563 5570 5576 5584 5591 5599 5606 5616 5625 5634 5640 5646 5651 5652 5653 5653 5652 5654 5660 5659 5655 5651 5648 5646 5646 5648 5648
5536 5533 5530 5526 5523 5521 5519 5515 5512 5515 5520 5526 5531 5537 5542 5547 5552 5559 5567 5574 5581 5589 5598 5607 5615 5623 5631 5638 5644 5650 5652 5651 5650 5648 5654 5655 5651 5649 5643 5640 5639 5640 5640